Pittsfield, IL

11:38 PM CDT on September 29, 2016 (GMT -0500)
Pittsfield Penstone Municipal

Weather History for KPPQ - June, 2014

Change the Weather History Date:

Monday, June 9, 2014

  Actual Average (KUIN) Record (KUIN)
Temperature  
Mean Temperature 68 °F 70 °F  
Max Temperature 78 °F 80 °F 100 °F (1911)
Min Temperature 58 °F 61 °F 42 °F (1913)
Degree Days  
Heating Degree Days 0 1  
Month to date heating degree days 11  
Since 1 June heating degree days 11  
Since 1 July heating degree days 5577  
Cooling Degree Days 2 6  
Month to date cooling degree days 47  
Year to date cooling degree days 133  
Since 1 June cooling degree days 47  
Growing Degree Days 18 (Base 50)    
Moisture  
Dew Point 58 °F    
Average Humidity 72    
Maximum Humidity 90    
Minimum Humidity 50    
Precipitation  
Precipitation 0.03 in 0.13 in 2.40 in (1958)
Month to date precipitation 1.30  
Year to date precipitation 15.39  
Sea Level Pressure  
Sea Level Pressure 29.91 in    
Wind  
Wind Speed 5 mph (ENE)    
Max Wind Speed 12 mph    
Max Gust Speed 17 mph    
Visibility 10 miles    
Events Rain    
T = Trace of Precipitation, MM = Missing Value Source: NWS Daily Summary

Daily Weather History Graph

Daily Weather History Graph

Search for Another Location

Airport or City:

Trip Planner

Search our weather history database for the weather conditions in past years. The results will help you decide how hot, cold, wet, or windy it might be!

Date:

Astronomy

Jun. 09, 2014 Rise Set
Actual Time 5:35 AM CDT 8:29 PM CDT
Civil Twilight 5:02 AM CDT 9:02 PM CDT
Nautical Twilight 4:22 AM CDT 9:43 PM CDT
Astronomical Twilight 3:35 AM CDT 10:30 PM CDT
Moon 4:51 PM CDT (6/9) 3:01 AM CDT (6/9)
Length of Visible Light 15h 59m
Length of Day
14h 54m
Waxing Gibbous, 85% of the Moon is Illuminated
Jun 9
Waxing Gibbous
Jun 12
Full
Jun 19
Last Quarter
Jun 27
New
Jul 5
First Quarter

Hourly Weather History & Observations

Time (CDT) Temp. Dew Point Humidity Pressure Visibility Wind Dir Wind Speed Gust Speed Precip Events Conditions
12:15 AM 65.7 °F 61.3 °F 86% 30.00 in 10.0 mi North 3.5 mph - N/A   Clear
12:35 AM 65.5 °F 61.2 °F 86% 30.00 in 10.0 mi Calm Calm - N/A   Clear
12:55 AM 64.9 °F 61.0 °F 87% 30.00 in 10.0 mi North 3.5 mph - N/A   Scattered Clouds
1:15 AM 65.3 °F 61.3 °F 87% 29.99 in 10.0 mi NNE 3.5 mph - N/A   Mostly Cloudy
1:35 AM 65.1 °F 61.3 °F 88% 29.99 in 10.0 mi NNE 3.5 mph - N/A   Scattered Clouds
1:55 AM 64.4 °F 61.2 °F 89% 29.99 in 10.0 mi ENE 4.6 mph - N/A   Scattered Clouds
2:15 AM 64.6 °F 61.7 °F 90% 29.97 in 10.0 mi ENE 6.9 mph - N/A   Clear
2:35 AM 64.6 °F 61.5 °F 90% 29.97 in 7.0 mi ENE 6.9 mph - N/A   Clear
2:55 AM 64.0 °F 60.8 °F 89% 29.97 in 10.0 mi NE 4.6 mph - N/A   Clear
3:15 AM 63.5 °F 60.1 °F 89% 29.97 in 10.0 mi ENE 5.8 mph - N/A   Clear
3:35 AM 63.0 °F 59.4 °F 88% 29.97 in 10.0 mi East 5.8 mph - N/A   Clear
3:55 AM 62.4 °F 59.0 °F 89% 29.97 in 10.0 mi East 4.6 mph - N/A   Clear
4:15 AM 61.7 °F 58.3 °F 89% 29.96 in 10.0 mi NE 5.8 mph - N/A   Clear
4:35 AM 61.0 °F 57.4 °F 88% 29.97 in 10.0 mi Calm Calm - N/A   Clear
4:55 AM 60.3 °F 56.5 °F 87% 29.97 in 10.0 mi NE 4.6 mph - N/A   Clear
5:15 AM 59.5 °F 55.8 °F 87% 29.96 in 10.0 mi NNE 3.5 mph - N/A   Clear
5:35 AM 58.8 °F 54.0 °F 84% 29.96 in 10.0 mi ENE 4.6 mph - N/A   Clear
5:55 AM 58.3 °F 52.9 °F 82% 29.96 in 10.0 mi NE 4.6 mph - N/A   Clear
6:15 AM 58.5 °F 52.3 °F 80% 29.96 in 10.0 mi NNE 6.9 mph - N/A   Clear
6:35 AM 59.0 °F 51.8 °F 77% 29.96 in 10.0 mi NE 4.6 mph - N/A   Clear
6:55 AM 59.4 °F 51.3 °F 75% 29.95 in 10.0 mi NE 5.8 mph - N/A   Clear
7:15 AM 59.2 °F 52.0 °F 77% 29.95 in 10.0 mi NE 5.8 mph - N/A   Clear
7:35 AM 60.4 °F 53.1 °F 77% 29.95 in 10.0 mi NE 6.9 mph - N/A   Clear
7:55 AM 61.2 °F 53.2 °F 75% 29.95 in 10.0 mi NE 8.1 mph - N/A   Clear
8:15 AM 63.1 °F 54.0 °F 72% 29.95 in 10.0 mi ENE 8.1 mph - N/A   Clear
8:35 AM 63.9 °F 53.2 °F 68% 29.95 in 10.0 mi NE 8.1 mph - N/A   Clear
8:55 AM 65.5 °F 54.7 °F 68% 29.96 in 10.0 mi ENE 6.9 mph - N/A   Clear
9:15 AM 66.4 °F 54.7 °F 66% 29.95 in 10.0 mi NE 6.9 mph - N/A   Clear
9:35 AM 67.3 °F 55.8 °F 66% 29.95 in 10.0 mi ENE 5.8 mph - N/A   Clear
9:55 AM 68.7 °F 56.5 °F 65% 29.94 in 10.0 mi ENE 6.9 mph - N/A   Clear
10:15 AM 70.2 °F 56.7 °F 62% 29.94 in 10.0 mi East 6.9 mph - N/A   Clear
10:35 AM 70.7 °F 56.8 °F 61% 29.95 in 10.0 mi East 5.8 mph - N/A   Clear
10:55 AM 72.3 °F 59.2 °F 63% 29.94 in 10.0 mi East 6.9 mph - N/A   Clear
11:15 AM 73.4 °F 59.0 °F 61% 29.94 in 10.0 mi East 3.5 mph - N/A   Clear
11:35 AM 73.9 °F 59.7 °F 61% 29.94 in 10.0 mi ENE 4.6 mph - N/A   Scattered Clouds
11:55 AM 74.3 °F 60.6 °F 62% 29.94 in 10.0 mi ENE 4.6 mph - N/A   Clear
12:15 PM 75.4 °F 62.1 °F 63% 29.93 in 10.0 mi East 4.6 mph - N/A   Clear
12:35 PM 76.1 °F 62.2 °F 62% 29.92 in 10.0 mi East 5.8 mph - N/A   Clear
12:55 PM 76.6 °F 62.6 °F 62% 29.91 in 10.0 mi East 5.8 mph - N/A   Scattered Clouds
1:15 PM 77.2 °F 63.1 °F 62% 29.90 in 10.0 mi East 5.8 mph - N/A   Mostly Cloudy
1:35 PM 77.0 °F 62.6 °F 61% 29.90 in 10.0 mi East 8.1 mph - N/A   Scattered Clouds
2:15 PM 77.0 °F 62.6 °F 61% 29.88 in 10.0 mi East 5.8 mph - N/A   Mostly Cloudy
2:35 PM 77.9 °F 62.1 °F 58% 29.88 in 10.0 mi East 4.6 mph - N/A   Scattered Clouds
2:55 PM 77.4 °F 62.2 °F 59% 29.87 in 10.0 mi East 4.6 mph - N/A   Mostly Cloudy
3:15 PM 75.0 °F 61.3 °F 62% 29.86 in 10.0 mi East 5.8 mph - N/A   Overcast
3:35 PM 74.3 °F 62.1 °F 65% 29.86 in 10.0 mi ESE 8.1 mph - N/A   Overcast
3:55 PM 71.6 °F 64.4 °F 78% 29.85 in 10.0 mi SSE 4.6 mph - N/A   Light Drizzle
4:15 PM 71.6 °F 64.2 °F 77% 29.85 in 10.0 mi Calm Calm - N/A   Overcast
4:35 PM 73.4 °F 63.7 °F 71% 29.85 in 10.0 mi East 3.5 mph - N/A   Overcast
4:55 PM 74.3 °F 63.9 °F 70% 29.85 in 10.0 mi East 4.6 mph - N/A   Overcast
5:15 PM 74.8 °F 60.3 °F 60% 29.85 in 10.0 mi East 9.2 mph - N/A   Mostly Cloudy
5:35 PM 74.5 °F 55.4 °F 51% 29.84 in 10.0 mi East 10.4 mph - N/A   Mostly Cloudy
5:55 PM 73.8 °F 55.9 °F 54% 29.83 in 10.0 mi ESE 8.1 mph - N/A   Scattered Clouds
6:15 PM 73.8 °F 54.0 °F 50% 29.83 in 10.0 mi East 11.5 mph 17.3 mph N/A   Clear
6:35 PM 73.0 °F 54.0 °F 51% 29.83 in 10.0 mi East 5.8 mph - N/A   Clear
6:55 PM 72.9 °F 55.6 °F 55% 29.83 in 10.0 mi East 6.9 mph - N/A   Clear
7:15 PM 72.1 °F 55.9 °F 57% 29.83 in 10.0 mi East 4.6 mph - N/A   Clear
7:35 PM 71.6 °F 55.8 °F 57% 29.83 in 10.0 mi East 8.1 mph - N/A   Clear
7:55 PM 71.2 °F 54.9 °F 56% 29.83 in 10.0 mi East 6.9 mph - N/A   Clear
8:15 PM 70.7 °F 54.5 °F 56% 29.83 in 10.0 mi East 5.8 mph - N/A   Clear
8:35 PM 70.2 °F 54.5 °F 57% 29.83 in 10.0 mi East 4.6 mph - N/A   Mostly Cloudy
8:55 PM 70.0 °F 54.7 °F 58% 29.83 in 10.0 mi East 5.8 mph - N/A   Overcast
9:15 PM 68.9 °F 56.1 °F 64% 29.84 in 10.0 mi East 8.1 mph - N/A Rain Light Rain
9:35 PM 68.2 °F 56.8 °F 67% 29.84 in 10.0 mi East 8.1 mph - N/A   Light Drizzle
9:55 PM 68.0 °F 57.4 °F 69% 29.84 in 10.0 mi East 6.9 mph - N/A   Light Drizzle
10:15 PM 66.7 °F 58.5 °F 75% 29.85 in 10.0 mi East 6.9 mph - N/A Rain Rain
10:35 PM 65.1 °F 59.7 °F 83% 29.85 in 10.0 mi ESE 5.8 mph - 0.01 in Rain Light Rain
10:55 PM 64.4 °F 59.5 °F 84% 29.85 in 10.0 mi ESE 6.9 mph - 0.01 in Rain Rain
11:15 PM 63.9 °F 59.4 °F 85% 29.85 in 10.0 mi East 4.6 mph - N/A Rain Rain
11:35 PM 63.3 °F 59.4 °F 87% 29.85 in 10.0 mi ENE 4.6 mph - 0.01 in Rain Light Rain
11:55 PM 62.8 °F 59.5 °F 89% 29.83 in 7.0 mi NE 4.6 mph - 0.02 in Rain Light Rain